Regional Weather Roundup
Issued by NWS

Home | Current Version | Previous Version | Text Only | Print | Product List | Glossary Off
Versions: 1 2 3 4 5 6 7 8 9 10 11 12 13 14 15 16 17 18 19 20 21 22 23 24 25 26 27 28 29 30 31 32 33 34 35 36 37 38 39 40 41 42 43 44 45 46 47 48 49 50

000
ASUS43 KLOT 262300
RWRIL

ILLINOIS REGIONAL WEATHER ROUNDUP
NATIONAL WEATHER SERVICE CHICAGO/ROMEOVILLE IL
500 PM CST MON JAN 26 2015

NOTE: "FAIR" INDICATES FEW OR NO CLOUDS BELOW 12,000 FEET WITH NO
SIGNIFICANT WEATHER AND/OR OBSTRUCTIONS TO VISIBILITY.

* THESE STATIONS ARE NOT UNDER NWS QUALITY CONTROL. THEY ALSO MAY NOT
  REPORT WEATHER SUCH AS PRECIPITATION OR FOG.

ILZ001-002-007-009-015-016-024-270000-
NORTHWEST ILLINOIS

CITY           SKY/WX    TMP DP  RH WIND       PRES   REMARKS
MOLINE         MOCLDY    31  27  85 SW3       29.82S FOG
STERLING*      CLOUDY    27  25  93 S5        29.85R WCI  21
$$

ILZ003-004-008-010-011-017-018-270000-
NORTH CENTRAL ILLINOIS

CITY           SKY/WX    TMP DP  RH WIND       PRES   REMARKS
ROCKFORD       FRZ DRZL  24  22  91 S8        29.88R FOG     WCI  15
$$

ILZ005-006-012>014-019>023-270000-
NORTHEAST ILLINOIS

CITY           SKY/WX    TMP DP  RH WIND       PRES   REMARKS
CHICAGO-OHARE  LGT SNOW  25  21  85 S6        29.87R FOG     WCI  18
CHICAGO-MIDWAY LGT SNOW  28  21  75 S6        29.88R WCI  22
AURORA         CLOUDY    26  22  84 SE8       29.88R FOG     WCI  18
WAUKEGAN       LGT SNOW  25  22  88 S5        29.87R FOG     WCI  19
DUPAGE AIRPORT CLOUDY    25  23  92 S7        29.87R FOG     WCI  17
WHEELING       CLOUDY    26  21  81 S5        29.89S WCI  20
NORTHERLY ISL    N/A     27  21  78 S5          N/A  WCI  22
$$

LMZ740>746-270000-
SOUTHERN LAKE MICHIGAN

STATION/POSITION SKY/WX   TEMP    WIND        PRES    VSBY  WAVE
                          AIR SEA DIR/SP/G                  HT/PER
                          (F)     (DEG/KT/KT) (MB)    (MI)  (FT/S)
WAUKEGAN HARBOR            26     140/  8/ 11   N/A
HARRISON CRIB              26     160/  9/ 11   N/A
BURNHAM HARBOR             27     150/  4/  6   N/A
CALUMET HARBOR             27     140/  5/  8   N/A
MICHIGAN CITY              24     110/  5/  8   N/A
$$

ILZ025>027-034>036-040-047-049-050-058-095>099-270000-
WEST-CENTRAL ILLINOIS

CITY           SKY/WX    TMP DP  RH WIND       PRES   REMARKS
QUINCY         CLEAR     39  33  79 S5        29.85R
$$

ILZ028>032-037-038-041>044-048-051>054-059>061-270000-
CENTRAL ILLINOIS

CITY           SKY/WX    TMP DP  RH WIND       PRES   REMARKS
DECATUR        CLOUDY    29  28  96 S8        29.90R FOG     WCI  21
PEORIA         CLOUDY    30  27  88 S6        29.87R FOG     WCI  24
SPRINGFIELD    CLOUDY    32  28  85 S9        29.88S WCI  24
TAYLORVILLE    NOT AVBL
$$

ILZ033-039-045-046-055>057-062-063-270000-
EAST-CENTRAL ILLINOIS

CITY           SKY/WX    TMP DP  RH WIND       PRES   REMARKS
CHAMPAIGN      CLOUDY    27  24  89 S10       29.90S FOG     WCI  17
MATTOON        CLOUDY    27  22  81 S7        29.92R WCI  19
$$

ILZ079-100>102-270000-
SOUTHWEST ILLINOIS

CITY           SKY/WX    TMP DP  RH WIND       PRES   REMARKS
CAHOKIA*       MOCLDY    38  30  73 SE7       29.90F WCI  33
$$

ILZ064>066-069>071-074>076-080>082-084>086-088>090-092>094-270000-
SOUTH-CENTRAL ILLINOIS

CITY           SKY/WX    TMP DP  RH WIND       PRES   REMARKS
CARBONDALE     CLOUDY    35  27  72 S5        29.94R WCI  31
MARION         CLOUDY    36  28  75 S9        29.95R WCI  29
MT. VERNON     CLOUDY    32  25  74 CALM      29.95R
$$

ILZ067-068-072-073-078-083-087-091-270000-
SOUTHEAST ILLINOIS

CITY           SKY/WX    TMP DP  RH WIND       PRES   REMARKS
LAWRENCEVILLE  LGT SNOW  28  24  85 SW3       29.96R FOG
$$

ABBREVIATIONS USED IN REMARKS
   TC - TEMPERATURE IN CELSIUS
  WCI - WIND CHILL INDEX
   HX - HEAT INDEX
  VSB - VISIBILITY
$$




USA.gov is the U.S. government's official web portal to all federal, state and local government web resources and services.